Weather History for Dubai International Airport, UAE

Change the Weather History Date:

Wednesday, March 13, 2013

  Actual Average Record
Temperature  
Mean Temperature 70 °F -  
Max Temperature 79 °F 85 °F - ()
Min Temperature 62 °F 67 °F - ()
Cooling Degree Days 6    
Growing Degree Days 20 (Base 50)    
Moisture  
Dew Point 58 °F    
Average Humidity 60    
Maximum Humidity 78    
Minimum Humidity 36    
Precipitation  
Precipitation 0.00 in 0.02 in - ()
Sea Level Pressure  
Sea Level Pressure 29.97 in    
Wind  
Wind Speed 7 mph ()    
Max Wind Speed 12 mph    
Max Gust Speed -    
Visibility 6.1 miles    
Events      
T = Trace of Precipitation, MM = Missing Value Source: Averaged Metar Reports

Daily Weather History Graph

Daily Weather History Graph

Search for Another Location

Airport:

Trip Planner

Search our weather history database for the weather conditions in past years. The results will help you decide how hot, cold, wet, or windy it might be!

Date:

Astronomy

Mar. 13, 2013 Rise Set
Actual Time 6:29 AM GST 6:26 PM GST
Civil Twilight 6:07 AM GST 6:49 PM GST
Nautical Twilight 5:40 AM GST 7:15 PM GST
Astronomical Twilight 5:13 AM GST 7:42 PM GST
Moon 7:09 AM GST (3/13) 8:01 PM GST (3/13)
Length of Visible Light 12h 42m
Length of Day
11h 56m
Waxing Crescent, 3% of the Moon is Illuminated
Mar 13
Waxing Crescent
Mar 19
First Quarter
Mar 27
Full
Apr 3
Last Quarter
Apr 10
New

Hourly Weather History & Observations

Time (GST) Temp. Dew Point Humidity Pressure Visibility Wind Dir Wind Speed Gust Speed Precip Events Conditions
12:00 AM 71.6 °F 57.2 °F 60% 29.98 in 6.2 mi WSW 9.2 mph - N/A   Scattered Clouds
1:00 AM 71 °F 59 °F 56% 29.98 in 6 mi South 5.8 mph - -   Scattered Clouds
1:00 AM 71.6 °F 59.0 °F 64% 29.98 in 6.2 mi South 5.8 mph - N/A   Partly Cloudy
2:00 AM 66.2 °F 55.4 °F 68% 29.95 in 6.2 mi South 6.9 mph - N/A   Scattered Clouds
3:00 AM 66.2 °F 55.4 °F 68% 29.95 in 6.2 mi South 6.9 mph - N/A   Scattered Clouds
4:00 AM 66 °F 56 °F 61% 29.96 in 6 mi SSE 8.1 mph - -   Partly Cloudy
4:00 AM 66.2 °F 55.4 °F 68% 29.95 in 6.2 mi SSE 8.1 mph - N/A   Scattered Clouds
5:00 AM 64.4 °F 55.4 °F 73% 29.95 in - South 8.1 mph - N/A   Clear
6:00 AM 64.4 °F 55.4 °F 73% 29.98 in - South 5.8 mph - N/A   Clear
7:00 AM 62 °F 54 °F 68% 30.00 in 6 mi SSW 8.1 mph - -  
7:00 AM 62.6 °F 53.6 °F 72% 29.98 in - SSW 8.1 mph - N/A   Clear
8:00 AM 64.4 °F 55.4 °F 73% 30.01 in - SSW 9.2 mph - N/A   Clear
9:00 AM 68.0 °F 55.4 °F 64% 30.01 in - South 9.2 mph - N/A   Clear
10:00 AM 71.6 °F 57.2 °F 60% 30.04 in - SW 9.2 mph - N/A   Clear
11:00 AM 75.2 °F 53.6 °F 47% 30.04 in - SSW 8.1 mph - N/A   Clear
12:00 PM 75.2 °F 57.2 °F 53% 30.01 in - WNW 10.4 mph - N/A   Clear
1:00 PM 77 °F 55 °F 36% 30.00 in 6 mi West 6.9 mph - -  
1:00 PM 77.0 °F 55.4 °F 47% 29.98 in - West 6.9 mph - N/A   Clear
2:00 PM 77.0 °F 57.2 °F 50% 29.95 in - WNW 11.5 mph - N/A   Clear
3:00 PM 78.8 °F 57.2 °F 47% 29.92 in - West 9.2 mph - N/A   Clear
4:00 PM 78 °F 58 °F 40% 29.93 in 6 mi West 9.2 mph - -  
4:00 PM 78.8 °F 59.0 °F 51% 29.92 in - West 9.2 mph - N/A   Clear
5:00 PM 77.0 °F 59.0 °F 54% 29.92 in - WNW 11.5 mph - N/A   Clear
6:00 PM 75.2 °F 57.2 °F 53% 29.92 in - NW 11.5 mph - N/A   Clear
7:00 PM 74 °F 60 °F 53% 29.94 in 6 mi NW 9.2 mph - -  
7:00 PM 73.4 °F 60.8 °F 65% 29.92 in - NW 9.2 mph - N/A   Clear
8:00 PM 73.4 °F 60.8 °F 65% 29.92 in - West 5.8 mph - N/A   Clear
9:00 PM 73.4 °F 62.6 °F 69% 29.95 in - WSW 5.8 mph - N/A   Clear
10:00 PM 72 °F 63 °F 66% 29.98 in 6 mi WSW 4.6 mph - -  
10:00 PM 73.4 °F 62.6 °F 69% 29.98 in - WSW 4.6 mph - N/A   Clear
11:00 PM 71.6 °F 64.4 °F 78% 29.95 in - SW 4.6 mph - N/A   Clear